This is the latest recevied weather packets stored in our database for station/object AD0YN. If no packets are shown the sender has not sent any weather packets the latest 10 day(s).
| Time | Temp. | Humidity | Pressure | Rain* | Wind** | Luminosity | Snow |
|---|---|---|---|---|---|---|---|
| 1777933908 | 28.33° C | 35% | 1000.4 hPa | 0 mm | - | 378 W/m² | - |
| 1777933605 | 27.78° C | 36% | 1000.5 hPa | 0 mm | - | 299 W/m² | - |
| 1777933302 | 27.78° C | 35% | 1000.5 hPa | 0 mm | - | 212 W/m² | - |
| 1777933000 | 27.78° C | 33% | 1000.7 hPa | 0 mm | - | 432 W/m² | - |
| 1777932696 | 27.78° C | 33% | 1000.6 hPa | 0 mm | - | 475 W/m² | - |
| 1777932392 | 27.78° C | 34% | 1000.6 hPa | 0 mm | - | 506 W/m² | - |
| 1777932091 | 27.78° C | 34% | 1000.8 hPa | 0 mm | - | 508 W/m² | - |
| 1777931787 | 27.78° C | 34% | 1000.7 hPa | 0 mm | - | 532 W/m² | - |
| 1777931484 | 27.78° C | 34% | 1000.7 hPa | 0 mm | - | 378 W/m² | - |
| 1777931180 | 28.33° C | 33% | 1000.6 hPa | 0 mm | - | 475 W/m² | - |
| 1777930876 | 28.33° C | 34% | 1000.8 hPa | 0 mm | - | 569 W/m² | - |
| 1777930573 | 27.78° C | 34% | 1000.8 hPa | 0 mm | - | 616 W/m² | - |
| 1777930270 | 28.33° C | 34% | 1000.6 hPa | 0 mm | - | 539 W/m² | - |
| 1777929966 | 28.33° C | 35% | 1000.7 hPa | 0 mm | - | 589 W/m² | - |
| 1777929663 | 27.78° C | 36% | 1000.6 hPa | 0 mm | - | 649 W/m² | - |
| 1777929360 | 27.78° C | 36% | 1000.8 hPa | 0 mm | - | 603 W/m² | - |
| 1777929057 | 27.78° C | 39% | 1000.8 hPa | 0 mm | - | 690 W/m² | - |
| 1777928755 | 27.78° C | 37% | 1000.8 hPa | 0 mm | - | 621 W/m² | - |
| 1777928450 | 27.78° C | 36% | 1000.8 hPa | 0 mm | - | 708 W/m² | - |
| 1777928149 | 27.78° C | 37% | 1000.8 hPa | 0 mm | - | 603 W/m² | - |
| 1777927846 | 27.22° C | 37% | 1000.7 hPa | 0 mm | - | 771 W/m² | - |
| 1777927544 | 27.22° C | 39% | 1000.8 hPa | 0 mm | - | 709 W/m² | - |
| 1777927243 | 27.22° C | 38% | 1000.9 hPa | 0 mm | - | 533 W/m² | - |
| 1777926941 | 27.22° C | 40% | 1000.9 hPa | 0 mm | - | 515 W/m² | - |
| 1777926638 | 27.22° C | 39% | 1001 hPa | 0 mm | - | 729 W/m² | - |
* Rain latest hour (hover to see other rain measurements)
** Current wind speed in m/s (hover to see current wind gust speed)